Location: Bruchsal
(49.1250°N, 8.5844°E)
Time: 20:26:16
(UTC+02:00)

ISS - Visible Passes

Search period start: 16 April 2026 00:00
Search period end: 26 April 2026 00:00
Orbit: 415 x 424 km, 51.6° (Epoch: 15 April)

Date Brightness Start Highest point End Pass type
(mag) Time Alt. Az. Time Alt. Az. Time Alt. Az.
18 Apr -0.9 05:27:33 10° SE 05:28:11 10° SE 05:28:49 10° ESE visible
20 Apr -1.9 05:26:59 10° SSW 05:29:45 24° SE 05:32:32 10° E visible
21 Apr -1.5 04:41:05 13° SSE 04:42:30 16° SE 04:44:41 10° E visible
22 Apr -1.0 03:55:28 10° SE 03:55:28 10° SE 03:55:59 10° ESE visible
22 Apr -3.2 05:28:26 12° SW 05:31:28 50° SSE 05:34:46 10° ENE visible
23 Apr -2.7 04:42:45 24° SSW 04:44:06 35° SSE 04:47:13 10° E visible
24 Apr -2.1 03:57:01 24° SE 03:57:01 24° SE 03:59:33 10° E visible
24 Apr -3.7 05:29:58 10° WSW 05:33:18 86° NNW 05:36:42 10° ENE visible
25 Apr -1.0 03:11:14 12° ESE 03:11:14 12° ESE 03:11:39 10° E visible
25 Apr -3.7 04:44:10 27° SW 04:45:50 72° SSE 04:49:12 10° ENE visible
